Terug naar catalogus

HEAD-2E

ActiefCommunicatieSSO
NORAD 49319·PAYLOAD·🇨🇳 China
Deze satellietnaam is nog niet bevestigd door officiële bronnen.

Gelanceerd Oct 14, 2021 vanaf Taiyuan Satellite Launch Center

Loading…

Volgende Passages (komende 24 uur)

TLE

VersSource: Space-Track

Epoch: Sep 14, 2026, 15:45 UTC

1 49319U 21091E   26257.65656584  .00035632  00000-0  29314-3 0  9997
2 49319  97.3620 122.9377 0003734 355.8806   4.2425 15.70328574275360

Volg HEAD-2E in realtime met AllMySat

Download on the App Store